Weather History for KAGS - December, 2012

Change the Weather History Date:

Thursday, December 6, 2012

  Actual Average Record
Temperature  
Mean Temperature 56 °F 49 °F  
Max Temperature 62 °F 62 °F 82 °F (1998)
Min Temperature 50 °F 36 °F 19 °F (1937)
Degree Days  
Heating Degree Days 9 16  
Month to date heating degree days 34 92  
Since 1 July heating degree days 534 514  
Cooling Degree Days 0 0  
Month to date cooling degree days 0 0  
Year to date cooling degree days 2163 2086  
Growing Degree Days 6 (Base 50)    
Moisture  
Dew Point 49 °F    
Average Humidity 76    
Maximum Humidity 96    
Minimum Humidity 56    
Precipitation  
Precipitation T in 0.10 in 2.27 in (1983)
Month to date precipitation T 0.63  
Year to date precipitation 31.41 40.81  
Sea Level Pressure  
Sea Level Pressure 30.16 in    
Wind  
Wind Speed 7 mph (NE)    
Max Wind Speed 13 mph    
Max Gust Speed 16 mph    
Visibility 10 miles    
Events Rain    
T = Trace of Precipitation, MM = Missing Value Source: NWS Daily Summary

Daily Weather History Graph

Daily Weather History Graph

Search for Another Location

Airport or City:

Trip Planner

Search our weather history database for the weather conditions in past years. The results will help you decide how hot, cold, wet, or windy it might be!

Date:

Astronomy

Dec. 06, 2012 Rise Set
Actual Time 7:18 AM EST 5:20 PM EST
Civil Twilight 6:50 AM EST 5:47 PM EST
Nautical Twilight 6:19 AM EST 6:18 PM EST
Astronomical Twilight 5:49 AM EST 6:48 PM EST
Moon No Moon Rise 12:27 PM EST (12/6)
Length of Visible Light 10h 56m
Length of Day
10h 01m
Waning Gibbous, 49% of the Moon is Illuminated
Dec 6
Waning Gibbous
Dec 13
New
Dec 20
First Quarter
Dec 28
Full
Jan 4
Last Quarter

Hourly Weather History & Observations

Time (EST) Temp. Dew Point Humidity Pressure Visibility Wind Dir Wind Speed Gust Speed Precip Events Conditions
12:53 AM 55.0 °F 53.1 °F 93% 30.13 in 10.0 mi Calm Calm - N/A   Clear
1:53 AM 53.1 °F 52.0 °F 96% 30.14 in 10.0 mi Calm Calm - N/A   Clear
2:53 AM 52.0 °F 50.0 °F 93% 30.14 in 10.0 mi Calm Calm - N/A   Clear
3:44 AM 53.6 °F 51.8 °F 94% 30.14 in 10.0 mi Calm Calm - N/A   Mostly Cloudy
3:53 AM 55.0 °F 53.1 °F 93% 30.14 in 10.0 mi NE 3.5 mph - N/A   Overcast
4:53 AM 57.0 °F 53.1 °F 87% 30.14 in 10.0 mi NE 4.6 mph - N/A   Overcast
5:53 AM 55.9 °F 51.1 °F 84% 30.15 in 10.0 mi NNE 4.6 mph - N/A   Overcast
6:46 AM 55.4 °F 51.8 °F 88% 30.16 in 10.0 mi NNE 5.8 mph - N/A   Overcast
6:53 AM 55.9 °F 51.1 °F 84% 30.17 in 10.0 mi NE 6.9 mph - N/A   Overcast
7:53 AM 57.0 °F 51.1 °F 81% 30.18 in 10.0 mi NE 4.6 mph - N/A   Overcast
8:53 AM 57.9 °F 52.0 °F 81% 30.19 in 10.0 mi NE 10.4 mph - N/A   Overcast
9:53 AM 57.2 °F 51.8 °F 82% 30.20 in 10.0 mi ENE 12.7 mph - N/A   Overcast
10:53 AM 57.9 °F 52.0 °F 81% 30.20 in 10.0 mi ENE 6.9 mph - N/A   Overcast
11:53 AM 59.0 °F 51.1 °F 75% 30.19 in 10.0 mi NE 11.5 mph - N/A   Overcast
12:53 PM 60.1 °F 51.1 °F 72% 30.16 in 10.0 mi East 8.1 mph - N/A   Overcast
1:53 PM 60.1 °F 51.1 °F 72% 30.14 in 10.0 mi ENE 5.8 mph - N/A   Overcast
2:33 PM 60.8 °F 50.0 °F 68% 30.14 in 10.0 mi ENE 3.5 mph - N/A   Overcast
2:53 PM 61.0 °F 50.0 °F 67% 30.13 in 10.0 mi East 3.5 mph - N/A   Overcast
3:53 PM 62.1 °F 46.0 °F 56% 30.14 in 10.0 mi NE 9.2 mph - N/A   Overcast
4:53 PM 61.0 °F 46.0 °F 58% 30.14 in 10.0 mi North 5.8 mph - N/A   Overcast
5:53 PM 60.1 °F 46.0 °F 60% 30.14 in 10.0 mi NE 6.9 mph - N/A   Overcast
6:53 PM 57.9 °F 46.0 °F 65% 30.16 in 10.0 mi NNE 11.5 mph - N/A   Overcast
7:53 PM 55.0 °F 44.1 °F 67% 30.18 in 10.0 mi ENE 9.2 mph - 0.00 in Rain Light Rain
8:53 PM 53.1 °F 45.0 °F 74% 30.17 in 10.0 mi NE 5.8 mph - 0.00 in   Overcast
9:53 PM 53.1 °F 42.1 °F 66% 30.16 in 10.0 mi ENE 6.9 mph - N/A   Overcast
10:53 PM 52.0 °F 41.0 °F 66% 30.15 in 10.0 mi NE 9.2 mph - N/A   Overcast
11:53 PM 52.0 °F 41.0 °F 66% 30.15 in 10.0 mi NNE 9.2 mph - N/A   Overcast